Home > Weather > Libreville > Past weeks

Flag for Gabon Past Weather in Libreville, Gabon — Yesterday and Last 2 Weeks

Now
84 °F

Scattered clouds.


Feels Like: 91 °F
Forecast: 77 / 83 °F
Wind: 6 mph from South

Location: Libreville Airport

Current Time: Aug 25, 2016 at 2:25:48 PM

Latest Report: Aug 25, 2016 at 1:00 PM


Visibility: N/A

Pressure: 29.92 "Hg

Humidity: 70%

Dew Point: 73 °F

Location of LibrevilleLocation

Past Weather in Libreville — Graph

°F

Libreville Temperature Yesterday

Maximum temperature yesterday: 82 °F (at 11:00 AM)
Minimum temperature yesterday: 75 °F (at 7:00 AM)
Average temperature yesterday: 79 °F

High & Low Weather Summary for the Past Weeks

 TemperatureHumidityPressure
High86 °F (Aug 12, 3:00 PM)100% (Aug 14, 7:00 AM)30.01 "Hg (Aug 14, 7:00 AM)
Low73 °F (Aug 14, 7:00 AM)62% (Aug 10, 2:00 PM)29.86 "Hg (Aug 13, 3:00 PM)
Average78 °F82%29.94 "Hg
* Reported Aug 10 1:00 PM — Aug 25 1:00 PM, Libreville, Weather by CustomWeather, © 2016

Note: Actual official high and low records may vary slightly from our data, if they occured in-between our weather recording intervals... More about our weather records

Advertising

Libreville Weather History for the Previous 24 Hours

Scroll right to see more
 ConditionsComfort  
Time TempWeatherWind HumidityBarometerVisibility
1:00 PM
Thu, Aug 25
84 °FScattered clouds.6 mph70%29.92 "HgN/A
12:00 PM81 °FScattered clouds.6 mph79%29.95 "HgN/A
11:00 AM81 °FScattered clouds.9 mph74%29.98 "Hg6 mi
10:00 AM81 °FScattered clouds.10 mph79%29.98 "Hg6 mi
9:00 AM77 °FScattered clouds.8 mph89%29.98 "Hg5 mi
8:00 AM77 °FScattered clouds.8 mph89%29.95 "Hg5 mi
7:00 AM75 °FScattered clouds.7 mph94%29.95 "Hg4 mi
6:00 AM75 °FPassing clouds.7 mph89%29.92 "HgN/A
5:00 AM75 °FPassing clouds.8 mph94%29.92 "HgN/A
4:00 AM75 °FPassing clouds.8 mph94%29.89 "HgN/A
3:00 AM77 °FPassing clouds.6 mph89%29.89 "HgN/A
2:00 AM77 °FPassing clouds.7 mph89%29.89 "HgN/A
1:00 AM77 °FPassing clouds.7 mph89%29.92 "HgN/A
12:00 AM79 °FPassing clouds.8 mph84%29.95 "HgN/A
11:00 PM
Wed, Aug 24
79 °FPassing clouds.7 mph84%29.98 "HgN/A
10:00 PM79 °FPassing clouds.9 mph84%29.95 "HgN/A
9:00 PM79 °FPassing clouds.7 mph84%29.95 "HgN/A
8:00 PM79 °FPassing clouds.8 mph84%29.92 "HgN/A
7:00 PM79 °FPassing clouds.7 mph84%29.89 "HgN/A
6:00 PM81 °FScattered clouds.7 mph74%29.89 "HgN/A
5:00 PM81 °FScattered clouds.8 mph79%29.86 "HgN/A
4:00 PM82 °FScattered clouds.8 mph74%29.86 "HgN/A
3:00 PM81 °FScattered clouds.9 mph79%29.89 "HgN/A
2:00 PM81 °FScattered clouds.9 mph74%29.92 "HgN/A
Weather by CustomWeather, © 2016

See weather overviewHow to use our weather pages